www.pogodaiklimat.ru

Погода и климат >> Архив погоды >> Индия >> Карнатака >> Хоннавар


ПОГОДА в Хоннаваре

  • Прогноз погоды в Хоннаваре
  • Монитор погоды в Хоннаваре

АРХИВ ПОГОДЫ в Хоннаваре

Время (UTC), дата Ветер
(напр.,м/с)
 
Видим.   Явления Облачность Т
(С)
Тd
(С)
f
(%)
Тe
(С)
Тes
(С)
Комфортность P
(гПа)
Po
(гПа)
Тmin
(С)
Tmax
(С)
R
(мм)
R24
(мм)
S
(см)
21 16.01 В 1 4000 м ясно +18.4 +17.1 92 +20 +20 1012.2 1009.2
00 17.01 В 1 4000 м ясно +17.6 +15.6 88 +19 +19 1012.5 1009.5
03 17.01 В 1 4000 м ясно +24.0 +12.5 49 +26 +29 жарко 1013.7 1010.7 +17.0 +33.6
06 17.01 В 1 10 км ясно +31.4 +15.7 39 +34 +50 душно 1013.4 1010.5
09 17.01 З 1 10 км ясно +31.2 +16.6 42 +35 +48 очень
душно
1010.0 1007.7
12 17.01 З 1 10 км ясно +29.0 +19.5 57 +35 +36 очень
душно
1009.9 1007.0 +34.0
15 17.01 В 1 4000 м ясно +24.4 +19.8 76 +30 +30 очень
душно
1011.7 1008.8
18 17.01 В 1 4000 м ясно +22.2 +19.1 83 +28 +28 душно 1012.2 1009.2
00 18.01 В 1 4000 м ясно +18.0 +15.3 84 +20 +20 1011.3 1008.3
03 18.01 В 1 10 км ясно +23.8 +15.9 61 +27 +31 жарко 1014.0 1011.1 +19.7 +34.0
06 18.01 В 1 10 км ясно +31.8 +13.2 32 +33 +49 жарко 1014.0 1011.1
09 18.01 З 1 10 км ясно +32.0 +16.9 40 +35 +48 очень
душно
1011.3 1008.4
12 18.01 З 1 10 км ясно +30.0 +18.6 50 +35 +36 очень
душно
1009.8 1006.9 +32.6
15 18.01 З 1 4000 м ясно +26.4 +18.2 61 +31 +31 душно 1010.7 1007.8
18 18.01 В 1 4000 м ясно +23.0 +16.5 67 +28 +28 душно 1012.2 1009.2
21 18.01 В 2 4000 м ясно +22.0 +15.3 66 +26 +26 душно 1011.8 1008.8
00 19.01 В 2 4000 м ясно +21.0 +10.4 51 +24 +24 комфорт 1012.6 1009.6
03 19.01 В 1 4000 м ясно +20.4 +16.4 78 +25 +28 комфорт 1015.2 1012.2 +17.0 +32.6
06 19.01 В 1 10 км ясно +30.0 +15.4 41 +33 +49 душно 1015.9 1012.9
09 19.01 З 1 10 км ясно +31.6 +15.1 37 +34 +47 душно 1012.2 1009.3
15 19.01 В 1 4000 м ясно +24.8 +21.2 80 +31 +31 очень
душно
1013.6 1010.6
18 19.01 В 1 4000 м ясно +21.6 +19.7 89 +27 +27 душно 1014.7 1011.7
21 19.01 В 1 4000 м ясно +20.0 +18.4 91 +25 +25 комфорт 1013.2 1010.2
00 20.01 В 1 4000 м ясно +18.0 +13.4 74 +20 +20 1014.3 1011.2
03 20.01 В 1 10 км ясно +23.0 +12.5 52 +26 +29 жарко 1016.2 1013.2 +17.9 +32.2
06 20.01 В 1 10 км ясно +31.0 +12.0 31 +31 +48 жарко 1015.8 1012.9
09 20.01 З 1 10 км ясно +31.4 +17.3 43 +35 +48 очень
душно
1012.0 1009.1
12 20.01 З 1 10 км ясно +30.4 +16.8 44 +34 +35 очень
душно
1010.5 1007.6 +33.1
15 20.01 В 1 4000 м ясно +25.4 +17.4 61 +29 +29 душно 1011.9 1009.0
18 20.01 В 2 4000 м ясно +22.0 +16.4 71 +26 +26 душно 1013.9 1010.9
21 20.01 В 1 4000 м ясно +20.4 +13.4 64 +24 +24 комфорт 1013.3 1010.3
00 21.01 В 2 4000 м ясно +20.0 +11.7 59 +22 +22 комфорт 1013.8 1010.8
03 21.01 В 1 4000 м ясно +20.4 +13.4 64 +24 +27 комфорт 1015.3 1012.3 +16.0 +33.1
06 21.01 З 1 10 км 3/3 600 м
[Cu hum]
+29.6 +20.2 57 +36 +48 очень
душно
1015.9 1012.9
09 21.01 З 1 10 км 1/1 300 м
[Cu hum]
+29.2 +20.8 61 +36 +48 очень
душно
1012.3 1009.4
12 21.01 З 1 10 км 3/3 200 м
[Cu Sc]
+28.2 +21.3 66 +36 +36 очень
душно
1012.0 1009.1 +30.9
15 21.01 В 1 4000 м ясно +25.6 +20.7 74 +32 +32 очень
душно
1013.5 1010.5
18 21.01 В 1 4000 м ясно +22.2 +20.7 91 +29 +29 очень
душно
1014.1 1011.1
21 21.01 В 1 4000 м 3/3 300 м
[Sc]
+21.0 +20.1 95 +28 +28 очень
душно
1012.7 1009.7
00 22.01 В 1 4000 м ясно +20.6 +19.7 95 +26 +26 душно 1013.3 1010.3
03 22.01 В 1 10 км ясно +21.6 +20.1 91 +27 +31 душно 1015.3 1012.3 +20.0 +30.9
06 22.01 В 1 10 км 4/4 300 м
[Cu Sc]
+29.4 +19.6 56 +35 +45 очень
душно
1015.3 1012.3
09 22.01 З 1 10 км 3/3 600 м
[Cu hum]
+30.4 +20.8 57 +38 +47 очень
душно
1013.8 1010.9
12 22.01 З 1 10 км 3/3 600 м
[Sc]
+29.0 +21.6 64 +37 +37 очень
душно
1012.0 1009.1 +30.6
15 22.01 СВ 1 4000 м ясно +25.0 +20.4 76 +31 +31 очень
душно
1014.0 1011.0
18 22.01 В 1 4000 м ясно +23.4 +21.3 88 +31 +31 очень
душно
1014.4 1011.4
21 22.01 В 1 4000 м ясно +22.0 +18.8 82 +27 +27 душно 1013.3 1010.3
00 23.01 В 1 4000 м ясно +20.0 +19.0 94 +24 +24 комфорт 1013.3 1010.3
03 23.01 В 1 4000 м ясно +21.0 +19.1 89 +27 +30 душно 1015.2 1012.2 +19.0 +30.6
06 23.01 З 1 10 км ясно +28.4 +16.6 49 +32 +49 душно 1015.3 1012.3
09 23.01 З 1 10 км ясно +29.0 +16.5 47 +32 +46 душно 1012.9 1009.0
12 23.01 З 1 10 км ясно +28.0 +18.3 56 +33 +34 очень
душно
1011.7 1008.8 +30.4
15 23.01 З 1 4000 м ясно +25.8 +16.4 56 +29 +29 душно 1013.6 1010.6
18 23.01 В 1 4000 м ясно +21.6 +18.1 80 +26 +26 душно 1014.1 1011.1

 

Местоположение метеостанции Хоннавар (Карнатака, Индия): широта 14.28 долгота 74.45 высота над уровнем моря 9 м.

В архиве по умолчанию представлена погода в Хоннаваре за последнюю неделю. Архивные данные за месяц целиком и за предыдущие месяцы, начиная с января 2011 года, Вы можете получить, выбрав интересующий диапазон дат из раскрывающегося списка и нажав кнопку "Ввод!".


*Определитесь, кто Вы:
робот инопланетянин человек

Внимание! Время в таблицах - всемирное. Для получения местного времени необходимо прибавить поправку, которая равна 5.5 ч.

Смотрите также архив погоды в соседних городах и на ближайших метеорологических станциях:

Погода в Ширали (Карнатака, Индия) (25 км)
Погода в Карваре (Карнатака, Индия) (65 км)
Погода на Агамбе (Карнатака, Индия) (110 км)
Погода в Хавери (Карнатака, Индия) (116 км)
Погода в Шимоге (Карнатака, Индия) (133 км)
Погода в Дхарваде (Карнатака, Индия) (145 км)
Погода в Мормугао (Гоа, Индия) (146 км)
Погода в Панаджи (Гоа, Индия) (150 км)
Погода в Мангалоре (Карнатака, Индия) (154 км)
Погода в Мангалор аэропорт (Карнатака, Индия) (158 км)

Пояснения к столбцам:

Ветер - указаны скорость ветра в м/с - средняя за 10 мин, порывы в срок и между сроками (в фигурных скобках) и направление, откуда дует ветер: С - северный, СВ - северо-восточный, В - восточный, ЮВ - юго-восточный, Ю - южный, ЮЗ - юго-западный, З - западный, СЗ - северо-западный.
Видимость - горизонтальная дальность видимости в метрах или километрах. При видимости от 1 до 10 км при отсутствии осадков обычно наблюдается дымка, при ухудшении видимости до 1 км и менее - туман. В сухую погоду видимость может ухудшаться дымом, пылью или мглою.
Явления - указаны атмосферные явления, наблюдавшиеся в срок или в последний час перед сроком; фигурными скобками обозначены явления, наблюдавшиеся между сроками (за 1-3 часа до срока); квадратными скобками обозначены град или гололедные отложения с указанием их диаметра в мм.
Облачность - указаны через наклонную черту общая и нижняя облачность в баллах и высота нижней границы облаков в метрах; квадратными скобками обозначены формы облаков: Ci - перистые, Cs - перисто-слоистые, Cc - перисто-кучевые, Ac - высококучевые, As - высокослоистые, Sc - слоисто-кучевые, Ns - слоисто-дождевые, Cu - кучевые, Cb - кучево-дождевые. Подробнее классификацию облаков см. в Атласе облаков (PDF).
T - Температура воздуха - температура, измеренная на высоте 2 м над землей.
Td - Температура точки росы - температура, при понижении до которой содержащийся в воздухе водяной пар достигнет насыщения.
f - Относительная влажность воздуха - влажноcть воздуха, измеренная на высоте 2 м над землей.
Te - Эффективная температура - температура, которую ощущает одетый по сезону человек в тени. Характеристика душности погоды. При расчете учитывается влияние влажности воздуха и скорости ветра на теплоощущения человека.
Tes - Эффективная температура на солнце - температура, которую ощущает человек, с поправкой на солнечный нагрев. Характеристика знойности погоды. Зависит от высоты солнца над горизонтом, облачности и скорости ветра. Ночью, в пасмурную погоду, а также при ветре 12 м/с и более поправка равна нулю.
P - Атмосферное давление - приведенное к уровню моря атмосферное давление.
Po - Атмосферное давление - измеренное на уровне метеостанции атмосферное давление.
Tmin - Минимальная температура - минимум температуры воздуха на высоте 2 м над землей.
Tmax - Максимальная температура - максимум температуры воздуха на высоте 2 м над землей.
R - Количество осадков - Количество выпавших осадков за период времени, мм. При наведении курсора мыши на число - период времени, за который выпало указанное количество осадков.
R24 - Количество осадков - Количество выпавших осадков за 24 часа, мм.
S - Снежный покров - Высота снежного покрова, см. При наведении курсора мыши на число - состояние снежного покрова и степень покрытия местности в баллах.